KOSC

Details ICAO KOSC (OSC)
Name OSCODA WURTSMITH
Region United States
Timezone America/Detroit (UTC-4.0)
Plans Departing 7
Arriving 14
Stats Elevation 634 ft / 193 m (AMSL)
Location 44.451557° -83.394054°
Runways 1
Magnetic Variation 7.773° W
Sunrise 2018-05-26 09:57:25 UTC / 2018-05-26 05:57:25 Local
Sunset 2018-05-27 01:06:45 UTC / 2018-05-26 21:06:45 Local
Advertisement - Login to hide

Runways

ID Width Length Bearing (true) Bearing (mag) Surface Threshold Offset Overrun Length
06 200 ft / 61 m 11,781 ft / 3,591 m 58.13° 65.90° Asphalt 0 ft / 0 m 1,000 ft / 305 m
24 200 ft / 61 m 11,781 ft / 3,591 m 238.15° 245.92° Asphalt 0 ft / 0 m 1,000 ft / 305 m

Approach Navaids

Runway Type Ident Frequency Range Bearing (true) Bearing (mag) Slope Elevation
24 Localiser ILJU 108.50 MHz 18 nm / 33 km 238.10° 245.87° - 634 ft / 193 m (AMSL)
24 Glidescope ILJU 108.50 MHz 10 nm / 19 km 238.14° 245.91° 2.60° 634 ft / 193 m (AMSL)

Map

Weather


0- 5 10 15 20 25 30 35+ Temperature / ° C

Clouds and Precipitation
Forecast for 2018-05-26 18:00 UTC. Updated an hour ago

Ground ~20,000 ft ~40,000 ft Winds

METAR

KOSC 261755Z AUTO 12009KT 10SM CLR 28/14 A2977 RMK AO2 T02810142 10286 20182

TAF

Not found

Frequencies

Unicom 123.00 MHz CTAF/UNICOM
Warning: Do not use this data for real-world aviation or navigation. No guarantee of current accuracy is given.